Location: Lombard
(41.8800°N, 88.0080°W)
Time: 00:14:23
(UTC-06:00)

BlueWalker 3 - Visible Passes

Search period start: 06 December 2022 00:00
Search period end: 16 December 2022 00:00
Orbit: 501 x 518 km, 53.2° (Epoch: 05 December)

Date Brightness Start Highest point End Pass type
(mag) Time Alt. Az. Time Alt. Az. Time Alt. Az.
06 Dec 3.4 18:23:35 10° NW 18:25:52 27° NNW 18:25:52 27° NNW visible
07 Dec 2.7 18:05:10 10° NW 18:08:29 36° NNE 18:08:29 36° NNE visible
08 Dec 2.5 17:46:44 10° NW 17:50:26 38° NNE 17:51:16 34° ENE visible
08 Dec 5.0 19:25:31 10° WNW 19:26:07 14° WNW 19:26:07 14° WNW visible
09 Dec 2.4 17:28:18 10° NW 17:32:01 40° NNE 17:34:14 21° E visible
09 Dec 4.3 19:07:08 10° WNW 19:09:06 23° W 19:09:06 23° W visible
10 Dec 2.4 17:09:52 10° NW 17:13:37 42° NNE 17:17:20 10° ESE visible
10 Dec 3.7 18:48:46 10° WNW 18:52:10 29° SW 18:52:21 29° SW visible
11 Dec 2.3 16:51:26 10° NW 16:55:12 45° NNE 16:58:57 10° ESE visible
11 Dec 3.9 18:30:23 10° WNW 18:33:43 27° SW 18:36:01 16° S visible
12 Dec 4.1 18:12:01 10° WNW 18:15:16 26° SW 18:18:30 10° S visible
13 Dec 4.4 17:53:39 10° WNW 17:56:49 24° SW 17:59:57 10° S visible
14 Dec 4.6 17:35:16 10° WNW 17:38:21 22° SW 17:41:24 10° S visible
15 Dec 4.9 17:16:54 10° W 17:19:53 21° SW 17:22:50 10° S visible
